QPF
0.02 0.01 0.01 0.00 0.00 0.00 0.00 0.01 0.01 0.00 0.00 0.01 0.01 0.01 0.00 0.01 0.01 0.00 0.00 0.00 0.00 0.01 0.01 0.01 0.01 0.01 0.00 0.00 0.00 0.00 0.00 0.01 0.00 0.00 0.00 0.00 0.00 0.00 0.00 0.01 0.01 0.01 0.01 0.00
0.01 0.01 0.01 0.01 0.01 0.00 0.01 0.01 0.01 0.00 0.00 0.01 0.01 0.01 0.00 0.00 0.01 0.00 0.00 0.00 0.00 0.01 0.01 0.01 0.01 0.01 0.00 0.00 0.00 0.00 0.00 0.00 0.01 0.01 0.01 0.01 0.01 0.01 0.00 0.00 0.01 0.01 0.01 0.01
0.02 0.01 0.01 0.02 0.01 0.01 0.01 0.02 0.01 0.01 0.01 0.01 0.01 0.01 0.01 0.01 0.01 0.01 0.00 0.00 0.00 0.01 0.01 0.01 0.01 0.01 0.00 0.00 0.00 0.00 0.00 0.00 0.01 0.01 0.01 0.01 0.01 0.01 0.00 0.00 0.01 0.01 0.01 0.01
0.03 0.02 0.02 0.02 0.01 0.01 0.01 0.02 0.01 0.01 0.01 0.01 0.02 0.02 0.02 0.01 0.01 0.01 0.01 0.01 0.01 0.01 0.01 0.01 0.00 0.01 0.00 0.00 0.00 0.00 0.01 0.01 0.01 0.01 0.01 0.01 0.01 0.01 0.01 0.00 0.00 0.01 0.01 0.01
0.04 0.03 0.01 0.01 0.01 0.01 0.01 0.01 0.01 0.01 0.01 0.01 0.02 0.02 0.03 0.02 0.01 0.01 0.01 0.01 0.01 0.01 0.01 0.00 0.00 0.00 0.00 0.00 0.00 0.00 0.00 0.01 0.01 0.01 0.01 0.01 0.01 0.01 0.01 0.00 0.00 0.00 0.00 0.01
0.04 0.03 0.01 0.01 0.00 0.00 0.00 0.01 0.00 0.01 0.01 0.01 0.01 0.03 0.04 0.03 0.02 0.01 0.01 0.01 0.01 0.01 0.01 0.00 0.00 0.00 0.00 0.00 0.00 0.00 0.00 0.01 0.01 0.01 0.01 0.01 0.01 0.01 0.01 0.00 0.00 0.00 0.00 0.00
0.03 0.03 0.01 0.00 0.00 0.00 0.00 0.00 0.00 0.00 0.01 0.01 0.01 0.02 0.03 0.03 0.03 0.02 0.02 0.02 0.02 0.01 0.00 0.00 0.00 0.00 0.00 0.00 0.00 0.00 0.00 0.01 0.01 0.01 0.01 0.01 0.01 0.01 0.01 0.00 0.00 0.00 0.00 0.00
0.02 0.03 0.01 0.00 0.00 0.01 0.01 0.00 0.00 0.00 0.00 0.01 0.01 0.01 0.01 0.01 0.02 0.03 0.03 0.03 0.02 0.01 0.00 0.00 0.00 0.00 0.00 0.00 0.00 0.00 0.00 0.01 0.01 0.01 0.01 0.01 0.01 0.01 0.01 0.01 0.01 0.01 0.01 0.01
0.01 0.01 0.01 0.01 0.01 0.01 0.01 0.00 0.00 0.00 0.00 0.00 0.00 0.00 0.01 0.01 0.01 0.02 0.03 0.03 0.02 0.01 0.00 0.00 0.00 0.00 0.00 0.00 0.00 0.00 0.00 0.01 0.01 0.01 0.01 0.01 0.01 0.01 0.01 0.01 0.01 0.01 0.01 0.01
0.01 0.01 0.01 0.00 0.00 0.00 0.00 0.00 0.00 0.00 0.00 0.00 0.00 0.00 0.00 0.01 0.01 0.01 0.02 0.02 0.03 0.01 0.00 0.00 0.00 0.00 0.00 0.00 0.00 0.00 0.01 0.01 0.01 0.01 0.01 0.01 0.01 0.01 0.01 0.01 0.01 0.02 0.02 0.01
0.01 0.01 0.01 0.00 0.00 0.00 0.00 0.00 0.00 0.00 0.00 0.00 0.00 0.00 0.00 0.01 0.01 0.01 0.01 0.01 0.02 0.01 0.01 0.00 0.00 0.00 0.00 0.00 0.00 0.00 0.00 0.00 0.01 0.01 0.00 0.00 0.00 0.01 0.01 0.01 0.01 0.01 0.02 0.02
0.02 0.02 0.01 0.01 0.00 0.00 0.00 0.00 0.00 0.00 0.00 0.00 0.00 0.01 0.01 0.01 0.01 0.01 0.01 0.01 0.01 0.01 0.01 0.00 0.00 0.00 0.00 0.00 0.00 0.00 0.00 0.00 0.00 0.00 0.00 0.00 0.01 0.01 0.01 0.01 0.01 0.01 0.01 0.02
0.01 0.01 0.01 0.01 0.01 0.01 0.00 0.00 0.00 0.00 0.00 0.00 0.00 0.01 0.01 0.00 0.01 0.01 0.01 0.01 0.01 0.01 0.01 0.01 0.01 0.00 0.00 0.00 0.00 0.00 0.01 0.00 0.00 0.00 0.00 0.01 0.01 0.01 0.01 0.01 0.01 0.01 0.01 0.01
0.01 0.01 0.00 0.01 0.01 0.01 0.00 0.00 0.01 0.00 0.00 0.00 0.00 0.01 0.01 0.01 0.01 0.01 0.01 0.01 0.01 0.01 0.01 0.01 0.01 0.01 0.00 0.00 0.00 0.00 0.00 0.00 0.00 0.01 0.01 0.01 0.01 0.01 0.02 0.01 0.01 0.01 0.01 0.01
0.00 0.00 0.00 0.00 0.00 0.01 0.01 0.01 0.01 0.01 0.00 0.00 0.00 0.01 0.01 0.01 0.01 0.01 0.01 0.01 0.01 0.01 0.01 0.01 0.01 0.01 0.00 0.00 0.01 0.01 0.01 0.01 0.01 0.01 0.01 0.01 0.01 0.01 0.02 0.02 0.02 0.02 0.01 0.01
0.00 0.00 0.00 0.00 0.00 0.00 0.01 0.01 0.01 0.01 0.01 0.00 0.01 0.01 0.01 0.01 0.01 0.01 0.01 0.01 0.01 0.01 0.00 0.00 0.00 0.00 0.00 0.00 0.00 0.00 0.01 0.01 0.01 0.01 0.01 0.01 0.01 0.02 0.02 0.02 0.02 0.02 0.02 0.02
0.00 0.00 0.00 0.00 0.00 0.00 0.00 0.01 0.01 0.01 0.01 0.01 0.01 0.01 0.01 0.01 0.01 0.01 0.01 0.01 0.01 0.00 0.00 0.00 0.00 0.00 0.00 0.00 0.00 0.01 0.01 0.01 0.01 0.01 0.01 0.01 0.02 0.02 0.02 0.02 0.03 0.02 0.02 0.03
0.00 0.00 0.00 0.00 0.00 0.00 0.00 0.00 0.01 0.01 0.01 0.01 0.01 0.01 0.01 0.00 0.00 0.00 0.00 0.00 0.00 0.00 0.00 0.00 0.00 0.00 0.00 0.00 0.00 0.01 0.01 0.01 0.01 0.01 0.01 0.02 0.02 0.02 0.02 0.02 0.02 0.03 0.02 0.03
0.00 0.00 0.00 0.00 0.00 0.00 0.00 0.00 0.00 0.00 0.00 0.01 0.01 0.01 0.00 0.00 0.00 0.00 0.00 0.00 0.00 0.00 0.00 0.00 0.00 0.00 0.00 0.00 0.00 0.01 0.01 0.01 0.01 0.01 0.01 0.02 0.02 0.02 0.02 0.02 0.02 0.03 0.03 0.03
0.00 0.00 0.00 0.00 0.00 0.00 0.00 0.00 0.00 0.00 0.00 0.00 0.00 0.00 0.00 0.00 0.00 0.00 0.00 0.00 0.00 0.00 0.01 0.01 0.01 0.00 0.00 0.00 0.01 0.01 0.01 0.01 0.01 0.01 0.01 0.01 0.01 0.01 0.02 0.02 0.02 0.03 0.03 0.03
0.00 0.00 0.00 0.00 0.00 0.00 0.00 0.00 0.00 0.00 0.00 0.00 0.00 0.00 0.00 0.00 0.00 0.00 0.00 0.00 0.00 0.00 0.01 0.01 0.01 0.01 0.01 0.00 0.01 0.01 0.01 0.01 0.01 0.01 0.01 0.01 0.01 0.01 0.02 0.02 0.02 0.03 0.03 0.03
0.00 0.00 0.00 0.00 0.00 0.00 0.00 0.00 0.00 0.00 0.00 0.00 0.00 0.00 0.00 0.00 0.00 0.00 0.00 0.01 0.01 0.01 0.01 0.01 0.00 0.00 0.01 0.01 0.01 0.01 0.01 0.01 0.01 0.01 0.01 0.01 0.01 0.01 0.01 0.02 0.02 0.02 0.02 0.03
0.00 0.00 0.00 0.00 0.00 0.00 0.00 0.00 0.00 0.00 0.00 0.00 0.00 0.00 0.00 0.00 0.01 0.01 0.01 0.01 0.01 0.01 0.01 0.01 0.01 0.01 0.01 0.01 0.01 0.01 0.01 0.01 0.01 0.01 0.01 0.01 0.01 0.01 0.01 0.01 0.01 0.01 0.02 0.02
0.00 0.00 0.00 0.00 0.00 0.00 0.00 0.00 0.00 0.00 0.00 0.00 0.00 0.00 0.00 0.00 0.00 0.01 0.01 0.01 0.01 0.01 0.01 0.01 0.01 0.01 0.01 0.01 0.01 0.01 0.01 0.01 0.02 0.02 0.02 0.01 0.01 0.01 0.01 0.01 0.01 0.01 0.01 0.01
0.00 0.00 0.00 0.00 0.00 0.00 0.00 0.00 0.00 0.00 0.00 0.00 0.00 0.00 0.00 0.01 0.01 0.01 0.01 0.01 0.01 0.01 0.01 0.01 0.01 0.01 0.01 0.01 0.01 0.01 0.01 0.01 0.01 0.01 0.01 0.01 0.01 0.01 0.01 0.01 0.01 0.01 0.01 0.01
0.00 0.00 0.00 0.00 0.00 0.00 0.00 0.00 0.00 0.00 0.00 0.00 0.00 0.01 0.01 0.00 0.01 0.01 0.01 0.01 0.01 0.01 0.01 0.01 0.01 0.01 0.01 0.01 0.01 0.01 0.01 0.01 0.01 0.01 0.01 0.01 0.01 0.01 0.01 0.01 0.01 0.01 0.01 0.01
0.00 0.00 0.00 0.00 0.00 0.00 0.01 0.01 0.01 0.01 0.01 0.01 0.01 0.01 0.01 0.01 0.01 0.01 0.01 0.01 0.01 0.01 0.01 0.01 0.01 0.01 0.01 0.01 0.01 0.01 0.01 0.01 0.01 0.01 0.01 0.00 0.00 0.00 0.00 0.01 0.01 0.01 0.01 0.01
MSLP
1012.79 1011.87 1010.96 1010.05 1009.13 1008.16 1007.10 1005.93 1004.63 1003.20 1001.65 1000.01 998.33 996.67 995.10 993.65 992.39 991.33 990.50 989.92 989.58 989.48 989.61 989.95 990.48 991.17 991.99 992.91 993.89 994.90 995.91 996.90 997.85 998.76 999.63 1000.46 1001.26 1002.04 1002.81 1003.56 1004.30 1005.03 1005.75 1006.46
1012.61 1011.74 1010.90 1010.10 1009.33 1008.54 1007.71 1006.78 1005.71 1004.50 1003.12 1001.61 1000.00 998.34 996.70 995.15 993.75 992.54 991.56 990.85 990.40 990.21 990.26 990.52 990.98 991.59 992.32 993.13 994.01 994.91 995.83 996.74 997.65 998.54 999.42 1000.30 1001.17 1002.02 1002.86 1003.68 1004.48 1005.25 1006.01 1006.75
1012.53 1011.69 1010.92 1010.22 1009.58 1008.96 1008.31 1007.58 1006.72 1005.68 1004.46 1003.07 1001.52 999.89 998.23 996.63 995.15 993.87 992.81 992.03 991.52 991.28 991.28 991.49 991.88 992.40 993.02 993.71 994.45 995.23 996.03 996.85 997.70 998.57 999.47 1000.38 1001.31 1002.24 1003.16 1004.05 1004.92 1005.74 1006.54 1007.32
1012.62 1011.82 1011.10 1010.49 1009.96 1009.47 1008.97 1008.40 1007.69 1006.80 1005.71 1004.41 1002.93 1001.34 999.70 998.10 996.61 995.31 994.24 993.44 992.92 992.65 992.62 992.79 993.10 993.52 994.03 994.58 995.19 995.82 996.50 997.23 998.02 998.86 999.76 1000.71 1001.70 1002.69 1003.68 1004.65 1005.57 1006.45 1007.28 1008.09
1012.89 1012.14 1011.49 1010.95 1010.51 1010.13 1009.75 1009.29 1008.70 1007.91 1006.91 1005.69 1004.28 1002.74 1001.15 999.58 998.13 996.85 995.81 995.03 994.51 994.24 994.18 994.30 994.53 994.86 995.24 995.66 996.13 996.64 997.21 997.85 998.58 999.39 1000.30 1001.27 1002.30 1003.35 1004.39 1005.41 1006.38 1007.30 1008.16 1008.99
1013.30 1012.60 1012.03 1011.57 1011.22 1010.93 1010.63 1010.25 1009.73 1009.02 1008.09 1006.94 1005.59 1004.11 1002.57 1001.07 999.67 998.45 997.45 996.71 996.21 995.94 995.85 995.91 996.07 996.29 996.56 996.87 997.21 997.62 998.09 998.67 999.35 1000.14 1001.04 1002.03 1003.09 1004.16 1005.24 1006.28 1007.28 1008.22 1009.10 1009.93
1013.74 1013.13 1012.64 1012.28 1012.01 1011.79 1011.56 1011.24 1010.77 1010.11 1009.22 1008.12 1006.83 1005.41 1003.95 1002.52 1001.19 1000.04 999.10 998.39 997.92 997.64 997.53 997.53 997.62 997.75 997.93 998.13 998.39 998.71 999.12 999.65 1000.30 1001.07 1001.97 1002.96 1004.01 1005.10 1006.17 1007.22 1008.22 1009.15 1010.03 1010.85
1014.11 1013.61 1013.24 1012.97 1012.79 1012.64 1012.46 1012.18 1011.74 1011.10 1010.25 1009.19 1007.95 1006.60 1005.22 1003.87 1002.64 1001.56 1000.68 1000.02 999.56 999.28 999.14 999.09 999.11 999.18 999.28 999.42 999.61 999.88 1000.26 1000.75 1001.38 1002.14 1003.03 1004.00 1005.04 1006.10 1007.15 1008.18 1009.15 1010.06 1010.91 1011.71
1014.36 1013.98 1013.72 1013.57 1013.48 1013.39 1013.25 1012.99 1012.57 1011.95 1011.12 1010.10 1008.92 1007.64 1006.35 1005.09 1003.95 1002.95 1002.15 1001.53 1001.10 1000.81 1000.65 1000.56 1000.54 1000.55 1000.60 1000.70 1000.86 1001.10 1001.46 1001.95 1002.56 1003.31 1004.17 1005.12 1006.11 1007.13 1008.14 1009.11 1010.04 1010.91 1011.73 1012.51
1014.45 1014.21 1014.08 1014.03 1014.02 1013.99 1013.88 1013.63 1013.22 1012.61 1011.80 1010.81 1009.69 1008.50 1007.30 1006.15 1005.10 1004.21 1003.47 1002.91 1002.51 1002.23 1002.05 1001.94 1001.89 1001.87 1001.89 1001.96 1002.11 1002.35 1002.70 1003.18 1003.79 1004.52 1005.35 1006.25 1007.20 1008.16 1009.10 1010.01 1010.89 1011.71 1012.50 1013.25
1014.45 1014.35 1014.33 1014.38 1014.43 1014.44 1014.34 1014.10 1013.68 1013.07 1012.28 1011.34 1010.28 1009.18 1008.08 1007.04 1006.11 1005.32 1004.67 1004.17 1003.81 1003.55 1003.37 1003.25 1003.17 1003.13 1003.14 1003.21 1003.35 1003.60 1003.95 1004.43 1005.03 1005.73 1006.52 1007.37 1008.26 1009.15 1010.03 1010.88 1011.69 1012.48 1013.23 1013.96
1014.45 1014.46 1014.54 1014.66 1014.76 1014.78 1014.68 1014.43 1014.00 1013.40 1012.63 1011.72 1010.74 1009.73 1008.74 1007.82 1007.01 1006.33 1005.77 1005.34 1005.03 1004.79 1004.62 1004.49 1004.41 1004.36 1004.36 1004.43 1004.58 1004.82 1005.18 1005.65 1006.23 1006.90 1007.65 1008.45 1009.27 1010.10 1010.91 1011.71 1012.48 1013.23 1013.95 1014.67
1014.53 1014.63 1014.79 1014.96 1015.08 1015.10 1014.99 1014.72 1014.27 1013.66 1012.91 1012.05 1011.14 1010.22 1009.35 1008.55 1007.86 1007.28 1006.82 1006.46 1006.19 1005.98 1005.82 1005.70 1005.61 1005.55 1005.55 1005.61 1005.76 1006.01 1006.36 1006.81 1007.37 1008.01 1008.72 1009.46 1010.23 1011.01 1011.77 1012.53 1013.26 1013.99 1014.70 1015.40
1014.76 1014.93 1015.14 1015.33 1015.45 1015.46 1015.32 1015.02 1014.55 1013.94 1013.21 1012.40 1011.56 1010.73 1009.96 1009.28 1008.69 1008.21 1007.83 1007.54 1007.31 1007.12 1006.97 1006.85 1006.75 1006.69 1006.68 1006.74 1006.89 1007.13 1007.47 1007.91 1008.45 1009.05 1009.72 1010.43 1011.16 1011.89 1012.62 1013.35 1014.06 1014.77 1015.47 1016.16
1015.12 1015.35 1015.59 1015.79 1015.90 1015.89 1015.72 1015.39 1014.90 1014.29 1013.58 1012.81 1012.04 1011.30 1010.62 1010.04 1009.54 1009.14 1008.83 1008.58 1008.38 1008.21 1008.06 1007.93 1007.83 1007.76 1007.75 1007.80 1007.94 1008.18 1008.51 1008.94 1009.46 1010.04 1010.68 1011.36 1012.06 1012.76 1013.47 1014.17 1014.88 1015.57 1016.27 1016.95
1015.56 1015.83 1016.09 1016.30 1016.40 1016.36 1016.17 1015.82 1015.32 1014.72 1014.03 1013.31 1012.60 1011.93 1011.33 1010.82 1010.40 1010.05 1009.78 1009.56 1009.37 1009.21 1009.06 1008.92 1008.81 1008.74 1008.72 1008.78 1008.92 1009.16 1009.49 1009.91 1010.42 1010.99 1011.61 1012.27 1012.95 1013.64 1014.33 1015.02 1015.71 1016.39 1017.08 1017.75
1015.98 1016.28 1016.56 1016.77 1016.87 1016.82 1016.61 1016.26 1015.77 1015.18 1014.53 1013.86 1013.20 1012.59 1012.05 1011.60 1011.22 1010.91 1010.66 1010.45 1010.27 1010.10 1009.94 1009.80 1009.69 1009.62 1009.60 1009.67 1009.82 1010.07 1010.41 1010.84 1011.35 1011.92 1012.53 1013.17 1013.84 1014.51 1015.18 1015.86 1016.53 1017.20 1017.87 1018.52
1016.27 1016.60 1016.91 1017.13 1017.23 1017.18 1016.99 1016.64 1016.18 1015.62 1015.01 1014.39 1013.78 1013.23 1012.74 1012.32 1011.97 1011.68 1011.43 1011.22 1011.03 1010.85 1010.69 1010.55 1010.44 1010.39 1010.40 1010.49 1010.67 1010.94 1011.30 1011.74 1012.26 1012.83 1013.44 1014.07 1014.72 1015.37 1016.03 1016.68 1017.33 1017.97 1018.61 1019.23
1016.36 1016.73 1017.06 1017.30 1017.42 1017.39 1017.21 1016.90 1016.47 1015.96 1015.40 1014.83 1014.28 1013.77 1013.32 1012.92 1012.59 1012.31 1012.06 1011.84 1011.65 1011.47 1011.31 1011.18 1011.10 1011.07 1011.12 1011.25 1011.46 1011.77 1012.16 1012.63 1013.16 1013.73 1014.34 1014.96 1015.58 1016.21 1016.83 1017.45 1018.07 1018.67 1019.27 1019.85
1016.23 1016.64 1016.99 1017.26 1017.40 1017.40 1017.26 1016.99 1016.61 1016.16 1015.66 1015.14 1014.65 1014.18 1013.76 1013.40 1013.08 1012.80 1012.55 1012.34 1012.14 1011.97 1011.83 1011.73 1011.69 1011.70 1011.80 1011.98 1012.24 1012.59 1013.02 1013.51 1014.05 1014.62 1015.21 1015.81 1016.41 1017.00 1017.58 1018.16 1018.72 1019.28 1019.83 1020.37
1015.93 1016.37 1016.76 1017.05 1017.21 1017.24 1017.14 1016.92 1016.60 1016.20 1015.77 1015.32 1014.87 1014.45 1014.07 1013.73 1013.43 1013.17 1012.93 1012.73 1012.55 1012.41 1012.30 1012.25 1012.25 1012.32 1012.47 1012.70 1013.02 1013.41 1013.86 1014.37 1014.91 1015.47 1016.04 1016.61 1017.17 1017.72 1018.26 1018.78 1019.30 1019.81 1020.31 1020.80
1015.54 1016.01 1016.41 1016.72 1016.91 1016.97 1016.91 1016.73 1016.47 1016.13 1015.76 1015.37 1014.98 1014.62 1014.28 1013.98 1013.70 1013.47 1013.26 1013.08 1012.94 1012.83 1012.77 1012.77 1012.83 1012.96 1013.16 1013.45 1013.80 1014.22 1014.70 1015.21 1015.74 1016.28 1016.82 1017.35 1017.87 1018.37 1018.86 1019.33 1019.80 1020.26 1020.72 1021.16
1015.16 1015.64 1016.05 1016.37 1016.57 1016.65 1016.62 1016.48 1016.27 1016.00 1015.68 1015.36 1015.03 1014.72 1014.44 1014.17 1013.94 1013.74 1013.57 1013.44 1013.34 1013.29 1013.29 1013.34 1013.46 1013.64 1013.90 1014.22 1014.61 1015.04 1015.52 1016.02 1016.53 1017.04 1017.54 1018.02 1018.49 1018.95 1019.39 1019.82 1020.24 1020.66 1021.08 1021.49
1014.83 1015.32 1015.73 1016.04 1016.24 1016.34 1016.33 1016.24 1016.07 1015.85 1015.60 1015.34 1015.08 1014.83 1014.60 1014.39 1014.21 1014.06 1013.94 1013.86 1013.82 1013.82 1013.88 1013.99 1014.16 1014.39 1014.68 1015.03 1015.43 1015.86 1016.32 1016.79 1017.26 1017.73 1018.19 1018.63 1019.05 1019.46 1019.86 1020.26 1020.65 1021.04 1021.43 1021.81
1014.57 1015.05 1015.45 1015.76 1015.96 1016.07 1016.08 1016.03 1015.91 1015.75 1015.56 1015.36 1015.17 1014.98 1014.81 1014.66 1014.54 1014.45 1014.38 1014.36 1014.37 1014.43 1014.54 1014.71 1014.92 1015.19 1015.50 1015.86 1016.25 1016.67 1017.09 1017.53 1017.95 1018.37 1018.78 1019.17 1019.55 1019.93 1020.30 1020.66 1021.03 1021.40 1021.76 1022.12
1014.35 1014.81 1015.19 1015.49 1015.70 1015.82 1015.87 1015.85 1015.79 1015.69 1015.57 1015.45 1015.32 1015.20 1015.09 1015.01 1014.94 1014.91 1014.90 1014.94 1015.01 1015.12 1015.28 1015.48 1015.73 1016.02 1016.34 1016.69 1017.06 1017.45 1017.83 1018.22 1018.59 1018.96 1019.32 1019.66 1020.01 1020.35 1020.69 1021.04 1021.39 1021.74 1022.08 1022.42
1014.08 1014.53 1014.90 1015.19 1015.41 1015.57 1015.66 1015.70 1015.70 1015.68 1015.64 1015.58 1015.53 1015.48 1015.44 1015.41 1015.41 1015.43 1015.48 1015.56 1015.68 1015.83 1016.03 1016.26 1016.53 1016.83 1017.15 1017.49 1017.83 1018.18 1018.52 1018.86 1019.18 1019.50 1019.80 1020.11 1020.42 1020.73 1021.05 1021.37 1021.71 1022.04 1022.37 1022.68
Thickness
5462 5462 5460 5461 5461 5454 5454 5470 5474 5489 5484 5490 5484 5479 5476 5471 5466 5461 5458 5454 5452 5450 5448 5446 5443 5442 5440 5439 5437 5435 5434 5433 5432 5430 5429 5427 5426 5426 5425 5424 5424 5424 5424 5425
5445 5449 5448 5448 5456 5454 5453 5459 5465 5469 5475 5481 5474 5469 5466 5464 5458 5454 5451 5447 5444 5441 5439 5436 5433 5431 5430 5428 5426 5425 5424 5422 5421 5419 5418 5417 5416 5416 5415 5415 5415 5415 5415 5415
5451 5438 5437 5456 5463 5457 5455 5457 5460 5465 5475 5470 5464 5461 5459 5456 5451 5446 5443 5440 5436 5433 5429 5425 5422 5419 5418 5417 5415 5414 5413 5411 5410 5408 5407 5407 5406 5406 5406 5406 5406 5406 5406 5406
5432 5429 5443 5473 5456 5457 5454 5454 5452 5455 5460 5459 5457 5453 5449 5445 5441 5438 5434 5430 5427 5423 5420 5415 5411 5408 5406 5405 5404 5403 5402 5401 5399 5398 5398 5397 5397 5397 5397 5398 5398 5398 5398 5398
5422 5434 5453 5460 5448 5442 5440 5448 5449 5448 5451 5449 5442 5440 5443 5437 5432 5429 5425 5421 5417 5413 5409 5405 5402 5400 5397 5396 5395 5394 5393 5392 5391 5390 5390 5389 5389 5389 5389 5389 5389 5389 5390 5390
5414 5427 5445 5461 5441 5433 5435 5444 5448 5442 5442 5438 5431 5439 5443 5430 5423 5419 5415 5411 5407 5403 5399 5397 5394 5391 5389 5388 5387 5386 5385 5384 5383 5382 5382 5381 5381 5381 5381 5381 5381 5381 5382 5382
5412 5421 5441 5443 5426 5425 5437 5451 5440 5435 5433 5428 5426 5430 5425 5417 5412 5408 5404 5401 5397 5394 5391 5389 5386 5384 5382 5381 5381 5379 5377 5376 5375 5374 5374 5374 5373 5374 5374 5373 5374 5375 5375 5376
5409 5414 5434 5427 5418 5427 5438 5432 5427 5426 5423 5419 5417 5412 5408 5406 5402 5398 5394 5391 5389 5386 5383 5381 5379 5377 5376 5375 5373 5371 5370 5369 5368 5368 5367 5367 5367 5367 5367 5367 5367 5368 5368 5368
5415 5428 5427 5418 5420 5420 5418 5418 5418 5417 5413 5410 5406 5403 5400 5396 5393 5390 5386 5384 5381 5378 5375 5374 5372 5371 5370 5368 5366 5364 5363 5363 5362 5362 5361 5360 5360 5361 5361 5361 5361 5361 5362 5362
5400 5413 5413 5409 5408 5407 5407 5408 5409 5406 5403 5401 5398 5396 5392 5388 5385 5382 5379 5376 5373 5370 5368 5367 5365 5363 5362 5360 5358 5358 5357 5357 5356 5356 5356 5355 5355 5355 5355 5355 5355 5355 5355 5356
5395 5403 5401 5404 5403 5404 5402 5400 5398 5396 5393 5392 5390 5387 5384 5380 5378 5374 5371 5368 5365 5363 5362 5360 5358 5357 5355 5353 5352 5352 5351 5350 5350 5350 5350 5350 5350 5350 5349 5349 5349 5349 5349 5349
5405 5405 5400 5405 5403 5398 5394 5393 5392 5388 5385 5383 5381 5378 5375 5372 5370 5366 5364 5361 5358 5356 5355 5353 5352 5350 5349 5348 5347 5346 5345 5345 5345 5345 5345 5345 5345 5345 5344 5343 5342 5342 5342 5342
5394 5392 5392 5392 5391 5389 5387 5386 5383 5380 5378 5375 5373 5370 5367 5365 5362 5359 5356 5354 5352 5350 5348 5347 5345 5344 5343 5342 5341 5340 5340 5339 5339 5339 5339 5339 5339 5339 5339 5339 5337 5337 5337 5337
5380 5379 5380 5381 5382 5379 5377 5375 5372 5370 5368 5366 5364 5361 5358 5356 5353 5351 5350 5348 5345 5343 5341 5340 5339 5339 5337 5336 5335 5334 5334 5333 5333 5333 5333 5333 5333 5333 5333 5333 5333 5334 5333 5332
5372 5373 5374 5372 5370 5368 5366 5364 5362 5361 5359 5357 5355 5353 5351 5349 5347 5345 5343 5340 5337 5336 5335 5334 5334 5333 5331 5330 5329 5329 5329 5329 5328 5328 5328 5328 5328 5328 5328 5327 5327 5328 5328 5328
5363 5362 5361 5360 5360 5358 5356 5355 5354 5353 5351 5349 5347 5345 5343 5341 5339 5337 5335 5332 5331 5331 5330 5328 5328 5327 5326 5324 5324 5323 5323 5323 5322 5323 5323 5323 5323 5323 5323 5323 5322 5323 5323 5323
5353 5353 5352 5352 5352 5350 5348 5347 5347 5345 5342 5341 5339 5337 5334 5332 5331 5330 5328 5326 5325 5324 5323 5323 5323 5322 5320 5319 5318 5319 5319 5319 5317 5318 5318 5318 5318 5318 5318 5318 5318 5318 5318 5318
5349 5351 5349 5348 5347 5344 5341 5339 5337 5336 5334 5333 5330 5328 5327 5326 5326 5324 5322 5320 5319 5318 5318 5318 5317 5316 5315 5314 5313 5314 5314 5314 5313 5313 5313 5314 5314 5314 5314 5314 5314 5314 5314 5314
5339 5339 5338 5337 5337 5336 5334 5332 5330 5328 5326 5324 5322 5321 5320 5319 5318 5316 5315 5314 5314 5314 5314 5313 5311 5310 5310 5309 5308 5308 5308 5308 5308 5308 5309 5309 5310 5310 5311 5311 5311 5311 5311 5311
5329 5329 5329 5328 5327 5326 5325 5323 5321 5319 5318 5316 5315 5314 5313 5312 5311 5309 5308 5308 5310 5310 5309 5307 5306 5306 5305 5304 5303 5303 5303 5303 5304 5304 5305 5306 5307 5307 5307 5308 5308 5308 5308 5308
5320 5320 5320 5319 5319 5318 5316 5314 5312 5311 5310 5308 5308 5308 5307 5306 5304 5302 5302 5305 5305 5303 5302 5302 5302 5301 5300 5299 5299 5299 5299 5299 5300 5301 5301 5302 5303 5304 5304 5305 5305 5305 5305 5305
5312 5312 5312 5311 5310 5309 5307 5306 5305 5304 5302 5301 5301 5300 5299 5299 5298 5298 5298 5299 5299 5298 5298 5298 5297 5297 5296 5296 5295 5295 5295 5296 5296 5297 5298 5299 5299 5300 5301 5301 5302 5302 5302 5302
5305 5304 5304 5303 5303 5301 5299 5299 5298 5298 5296 5296 5295 5295 5295 5295 5295 5295 5296 5295 5294 5293 5293 5293 5293 5293 5293 5292 5292 5292 5292 5292 5293 5293 5294 5295 5296 5296 5297 5298 5298 5299 5299 5299
5296 5295 5295 5294 5294 5294 5294 5294 5292 5291 5290 5290 5289 5288 5288 5289 5290 5290 5290 5289 5289 5289 5289 5290 5290 5290 5289 5289 5289 5289 5289 5290 5290 5290 5291 5291 5292 5293 5294 5295 5295 5296 5296 5296
5289 5288 5287 5287 5289 5291 5290 5287 5285 5285 5285 5285 5285 5284 5284 5284 5285 5285 5284 5284 5284 5284 5285 5286 5286 5286 5286 5286 5286 5286 5286 5287 5287 5287 5287 5288 5289 5290 5290 5291 5291 5292 5293 5294
5283 5284 5284 5284 5284 5285 5284 5283 5283 5282 5281 5281 5281 5280 5279 5278 5278 5278 5278 5278 5278 5279 5280 5280 5281 5281 5282 5282 5282 5283 5283 5283 5283 5283 5284 5285 5286 5286 5287 5287 5288 5289 5290 5291
5278 5278 5278 5280 5280 5279 5279 5279 5278 5278 5277 5276 5276 5275 5274 5273 5273 5273 5273 5273 5274 5274 5275 5275 5276 5277 5277 5278 5279 5279 5280 5280 5280 5280 5281 5281 5282 5283 5284 5284 5285 5286 5287 5289